Plymouth, NH

2:07 AM EDT on April 30, 2017 (GMT -0400)
Plymouth

Weather History for K1P1 - March, 2014

Change the Weather History Date:

Tuesday, March 25, 2014

  Actual Average (KLCI) Record (KLCI)
Temperature  
Mean Temperature 12 °F -  
Max Temperature 32 °F 44 °F 67 °F (1987)
Min Temperature -9 °F 24 °F 1 °F (2014)
Degree Days  
Heating Degree Days 54    
Moisture  
Dew Point 1 °F    
Average Humidity 62    
Maximum Humidity 88    
Minimum Humidity 30    
Precipitation  
Precipitation 0.00 in - - ()
Sea Level Pressure  
Sea Level Pressure 30.04 in    
Wind  
Wind Speed 1 mph (WSW)    
Max Wind Speed 10 mph    
Max Gust Speed 17 mph    
Visibility 10 miles    
Events      
Averages and records for this station are not official NWS values.
T = Trace of Precipitation, MM = Missing Value Source: NWS Daily Summary

Daily Weather History Graph

Daily Weather History Graph

Search for Another Location

Airport or City:

Trip Planner

Search our weather history database for the weather conditions in past years. The results will help you decide how hot, cold, wet, or windy it might be!

Date:

Astronomy

Mar. 25, 2014 Rise Set
Actual Time 6:41 AM EDT 7:05 PM EDT
Civil Twilight 6:12 AM EDT 7:34 PM EDT
Nautical Twilight 5:38 AM EDT 8:08 PM EDT
Astronomical Twilight 5:03 AM EDT 8:43 PM EDT
Moon 3:10 AM EDT (3/25) 1:23 PM EDT (3/25)
Length of Visible Light 13h 21m
Length of Day
12h 24m
Waning Crescent, 32% of the Moon is Illuminated
Mar 25
Waning Crescent
Mar 30
New
Apr 7
First Quarter
Apr 15
Full
Apr 22
Last Quarter

Hourly Weather History & Observations

Time (EDT) Temp. Windchill Dew Point Humidity Pressure Visibility Wind Dir Wind Speed Gust Speed Precip Events Conditions
12:15 AM 2.7 °F - -1.3 °F 84% 30.09 in 10.0 mi Calm Calm - N/A   Unknown
12:35 AM 0.9 °F - -3.1 °F 83% 30.09 in 10.0 mi Calm Calm - N/A   Unknown
12:55 AM 1.2 °F - -2.2 °F 86% 30.09 in 10.0 mi Calm Calm - N/A   Unknown
1:15 AM 0.3 °F - -3.5 °F 84% 30.09 in 10.0 mi Calm Calm - N/A   Unknown
1:35 AM -0.6 °F - -3.3 °F 88% 30.10 in 10.0 mi Calm Calm - N/A   Unknown
1:55 AM -1.5 °F - -4.4 °F 88% 30.09 in 10.0 mi Calm Calm - N/A   Unknown
2:15 AM -2.2 °F - -4.9 °F 88% 30.09 in 10.0 mi Calm Calm - N/A   Unknown
2:35 AM -2.6 °F - -5.8 °F 86% 30.09 in 10.0 mi Calm Calm - N/A   Unknown
2:55 AM -3.3 °F - -6.3 °F 87% 30.09 in 10.0 mi Calm Calm - N/A   Unknown
3:15 AM -4.7 °F - -8.3 °F 84% 30.09 in 10.0 mi Calm Calm - N/A   Unknown
3:35 AM -5.4 °F - -9.0 °F 84% 30.08 in 10.0 mi Calm Calm - N/A   Unknown
3:55 AM -4.7 °F - -8.3 °F 84% 30.09 in 10.0 mi Calm Calm - N/A   Unknown
4:15 AM -6.0 °F - -9.6 °F 84% 30.08 in 10.0 mi Calm Calm - N/A   Unknown
4:35 AM -6.5 °F - -10.3 °F 84% 30.09 in 10.0 mi Calm Calm - N/A   Unknown
4:55 AM -8.0 °F - -12.1 °F 82% 30.08 in 10.0 mi Calm Calm - N/A   Unknown
5:15 AM -7.6 °F - -11.4 °F 84% 30.09 in 10.0 mi Calm Calm - N/A   Unknown
5:35 AM -8.7 °F - -13.2 °F 81% 30.09 in 10.0 mi Calm Calm - N/A   Unknown
5:55 AM -8.7 °F - -13.0 °F 81% 30.09 in 10.0 mi Calm Calm - N/A   Unknown
6:15 AM -9.8 °F - -14.3 °F 81% 30.09 in 10.0 mi Calm Calm - N/A   Unknown
6:35 AM -9.0 °F - -13.4 °F 81% 30.10 in 10.0 mi Calm Calm - N/A   Unknown
6:55 AM -9.9 °F - -14.4 °F 81% 30.11 in 10.0 mi Calm Calm - N/A   Unknown
7:15 AM -9.9 °F - -14.3 °F 81% 30.11 in 10.0 mi Calm Calm - N/A   Unknown
7:35 AM -9.6 °F - -13.5 °F 83% 30.12 in 10.0 mi Calm Calm - N/A   Unknown
7:55 AM -6.9 °F - -10.8 °F 83% 30.11 in 10.0 mi Calm Calm - N/A   Unknown
8:15 AM -3.3 °F - -6.7 °F 85% 30.11 in 10.0 mi Calm Calm - N/A   Unknown
8:35 AM -0.4 °F - -4.0 °F 85% 30.11 in 10.0 mi Calm Calm - N/A   Unknown
8:55 AM 1.9 °F - -2.0 °F 83% 30.10 in 10.0 mi Calm Calm - N/A   Unknown
9:15 AM 5.2 °F - 1.0 °F 83% 30.09 in 10.0 mi Calm Calm - N/A   Unknown
9:35 AM 7.0 °F - -0.6 °F 71% 30.08 in 10.0 mi Calm Calm - N/A   Unknown
9:55 AM 8.4 °F - -0.8 °F 66% 30.08 in 10.0 mi Calm Calm - N/A   Unknown
10:15 AM 11.1 °F - -0.9 °F 58% 30.08 in 10.0 mi Calm Calm - N/A   Unknown
10:35 AM 16.2 °F - -0.0 °F 49% 30.07 in 10.0 mi Calm Calm - N/A   Unknown
10:55 AM 18.9 °F - 2.8 °F 50% 30.06 in 10.0 mi Calm Calm - N/A   Unknown
11:15 AM 21.0 °F - 3.9 °F 48% 30.05 in 10.0 mi Calm Calm - N/A   Unknown
11:35 AM 24.3 °F - 6.3 °F 46% 30.04 in 10.0 mi Calm Calm - N/A   Unknown
11:55 AM 25.3 °F 21.1 °F 4.3 °F 41% 30.04 in 10.0 mi NNW 3.5 mph - N/A   Unknown
12:15 PM 26.8 °F 18.5 °F -0.2 °F 31% 30.04 in 10.0 mi WSW 8.1 mph - N/A   Unknown
12:35 PM 29.5 °F 23.4 °F 1.4 °F 30% 30.03 in 10.0 mi SW 5.8 mph 16.1 mph N/A   Unknown
12:55 PM 28.9 °F 20.4 °F 2.7 °F 33% 30.03 in 10.0 mi SW 9.2 mph - N/A   Unknown
1:15 PM 28.9 °F - 2.3 °F 32% 30.03 in 10.0 mi Calm Calm - N/A   Unknown
1:35 PM 28.4 °F 23.3 °F 3.9 °F 35% 30.02 in 10.0 mi West 4.6 mph - N/A   Unknown
1:55 PM 30.9 °F 22.2 °F 4.3 °F 32% 30.02 in 10.0 mi SW 10.4 mph - N/A   Unknown
2:15 PM 30.6 °F 22.4 °F 4.6 °F 33% 30.02 in 10.0 mi SSW 9.2 mph - N/A   Unknown
2:35 PM 31.1 °F 25.4 °F 5.9 °F 35% 30.01 in 10.0 mi SW 5.8 mph 16.1 mph N/A   Unknown
2:55 PM 31.1 °F 26.4 °F 5.5 °F 34% 30.01 in 10.0 mi West 4.6 mph 17.3 mph N/A   Unknown
3:15 PM 30.2 °F 24.3 °F 8.1 °F 39% 30.01 in 10.0 mi WSW 5.8 mph - N/A   Unknown
3:35 PM 30.4 °F 24.5 °F 9.1 °F 41% 30.00 in 10.0 mi WNW 5.8 mph - N/A   Unknown
3:55 PM 31.3 °F 27.9 °F 7.7 °F 37% 29.99 in 10.0 mi West 3.5 mph - N/A   Unknown
4:15 PM 31.1 °F 24.5 °F 9.1 °F 40% 29.99 in 10.0 mi West 6.9 mph - N/A   Unknown
4:35 PM 30.4 °F - 7.9 °F 39% 29.98 in 10.0 mi Calm Calm - N/A   Unknown
4:55 PM 31.3 °F 27.9 °F 6.8 °F 36% 29.97 in 10.0 mi WNW 3.5 mph - N/A   Unknown
5:15 PM 30.6 °F - 7.0 °F 37% 29.96 in 10.0 mi Calm Calm - N/A   Unknown
5:35 PM 31.1 °F 26.4 °F 6.8 °F 36% 29.97 in 10.0 mi ENE 4.6 mph - N/A   Unknown
5:55 PM 31.5 °F 28.1 °F 5.4 °F 33% 29.97 in 10.0 mi NE 3.5 mph - N/A   Unknown
6:15 PM 32.0 °F - 5.0 °F 32% 29.96 in 10.0 mi Calm Calm - N/A   Unknown
6:35 PM 31.8 °F - 4.3 °F 31% 29.97 in 10.0 mi Calm Calm - N/A   Unknown
6:55 PM 30.7 °F - 5.2 °F 34% 29.96 in 10.0 mi Calm Calm - N/A   Unknown
7:15 PM 30.0 °F - 4.1 °F 33% 29.96 in 10.0 mi Calm Calm - N/A   Unknown
7:35 PM 27.7 °F - 8.4 °F 44% 29.96 in 10.0 mi Calm Calm - N/A   Unknown
7:55 PM 26.4 °F 22.4 °F 10.0 °F 50% 29.97 in 10.0 mi SSE 3.5 mph - N/A   Unknown
8:15 PM 24.4 °F - 8.4 °F 51% 29.97 in 10.0 mi Calm Calm - N/A   Unknown
8:35 PM 23.9 °F - 7.7 °F 50% 29.98 in 10.0 mi Calm Calm - N/A   Unknown
8:55 PM 22.6 °F - 10.9 °F 61% 29.98 in 10.0 mi Calm Calm - N/A   Unknown
9:15 PM 22.3 °F - 12.0 °F 65% 29.97 in 10.0 mi Calm Calm - N/A   Unknown
9:35 PM 21.2 °F - 12.4 °F 69% 29.97 in 10.0 mi Calm Calm - N/A   Unknown
9:55 PM 18.9 °F - 11.3 °F 72% 29.98 in 10.0 mi Calm Calm - N/A   Unknown
10:15 PM 19.6 °F - 11.8 °F 72% 29.98 in 10.0 mi Calm Calm - N/A   Unknown
10:35 PM 17.6 °F - 11.7 °F 78% 29.99 in 10.0 mi Calm Calm - N/A   Unknown
10:55 PM 18.1 °F - 11.1 °F 74% 29.99 in 10.0 mi Calm Calm - N/A   Unknown
11:15 PM 18.0 °F - 9.9 °F 71% 29.98 in 10.0 mi Calm Calm - N/A   Unknown
11:35 PM 17.2 °F - 11.1 °F 77% 29.99 in 10.0 mi Calm Calm - N/A   Unknown
11:55 PM 16.2 °F - 10.9 °F 80% 29.99 in 10.0 mi Calm Calm - N/A   Unknown